RH
20 20 18 17 18 18 16 16 18 20 24 30 30 30 29 30 29 47 65 62 54 37 31 39 63 64 67 60 47 46 70 69 54 37 28 18 17 17 20 40 46 46 47 33 39
8 19 21 17 19 20 17 16 20 28 33 33 36 36 35 34 34 57 61 39 35 33 43 73 64 60 61 53 48 52 62 52 36 31 28 22 20 18 16 20 42 45 31 39 53
8 8 18 21 18 20 19 18 22 32 35 37 39 42 47 40 61 58 35 34 37 48 46 53 65 62 57 51 48 47 64 47 40 34 32 30 26 21 24 48 43 51 54 56 85
11 8 9 18 21 21 21 19 23 34 38 40 43 43 44 40 73 54 34 36 42 48 56 72 66 62 55 55 41 49 41 40 38 35 33 35 30 29 24 34 42 44 52 65 71
15 13 10 10 19 23 23 20 22 33 41 46 51 52 56 81 69 62 55 42 46 56 84 72 65 60 63 51 48 49 42 38 37 35 35 34 35 32 29 26 30 39 48 60 73
17 16 13 11 12 22 24 24 24 34 43 49 56 78 93 81 65 60 52 51 65 88 80 72 72 69 71 61 62 52 50 46 45 44 40 38 36 34 31 29 28 36 43 56 67
22 20 18 16 14 17 26 27 28 34 47 52 57 86 97 85 70 62 58 61 82 76 75 75 73 76 78 78 65 67 70 58 55 51 48 40 46 43 34 33 31 28 27 34 60
29 41 42 25 18 19 27 30 30 34 48 54 60 89 90 72 76 75 68 76 78 79 81 78 76 83 89 88 83 77 68 89 53 49 47 48 73 42 35 33 32 31 27 38 40
37 48 60 50 22 22 28 31 34 38 45 61 74 91 75 74 72 59 74 80 78 76 77 81 92 93 96 92 95 90 92 74 59 41 41 45 66 43 36 35 32 30 28 39 60
62 62 56 48 28 23 28 34 41 52 71 97 88 84 74 63 65 66 75 84 86 79 82 92 91 93 99 98 91 82 80 63 63 46 49 47 47 40 34 37 37 34 28 38 69
68 49 44 42 33 26 30 63 74 92 93 67 61 66 62 66 64 62 87 90 87 81 74 84 98 94 83 80 80 74 81 81 61 47 55 57 49 58 55 37 36 34 35 59 80
61 48 47 43 37 30 34 71 62 55 69 56 55 61 59 61 63 80 86 86 75 81 67 79 96 71 64 62 78 80 94 86 65 47 46 58 79 68 65 45 35 49 62 80 87
54 57 62 57 48 48 55 65 52 61 73 52 55 58 55 58 57 62 76 76 79 84 76 79 61 45 52 68 90 94 95 85 77 64 73 90 90 76 70 40 37 53 65 72 72
66 66 68 58 63 64 61 51 54 63 84 66 67 75 75 79 74 70 76 72 72 84 67 71 57 56 64 78 78 97 69 86 79 93 92 96 92 95 79 56 58 66 76 76 49
79 70 63 57 53 59 60 42 50 83 98 72 73 82 79 78 73 82 85 83 82 70 63 72 59 58 89 78 94 96 91 82 77 97 98 84 98 78 74 66 73 69 74 76 49
73 67 64 61 56 64 34 51 79 89 92 75 78 76 77 72 66 93 86 85 81 82 72 79 57 60 62 53 92 82 100 98 96 98 97 86 97 90 78 68 66 63 63 63 66
73 69 62 57 57 54 45 77 98 97 43 85 75 60 73 84 68 74 88 95 94 97 89 68 55 45 48 60 85 100 100 97 97 98 97 78 92 74 56 51 45 50 51 49 54
82 77 67 55 53 39 72 79 97 79 68 45 48 51 70 64 70 63 74 89 73 90 96 86 84 44 42 55 61 72 76 99 97 86 74 81 87 63 52 70 69 53 38 42 55
84 84 73 48 39 56 82 85 91 72 53 57 50 52 59 67 77 68 74 83 95 75 90 94 73 50 44 43 56 59 71 59 87 70 89 78 53 61 60 76 78 66 56 56 76
84 76 69 39 42 70 83 81 59 45 44 46 61 65 94 93 83 84 79 63 90 73 66 82 97 54 46 47 50 65 55 74 87 96 86 59 47 47 38 54 88 83 71 79 85
89 75 66 46 51 74 96 79 52 41 41 49 56 72 84 87 96 95 93 70 68 70 67 76 89 71 56 53 57 66 70 59 59 66 97 94 58 35 42 38 59 90 93 98 81
94 89 77 55 80 86 95 57 47 38 43 43 49 54 70 70 90 95 91 66 59 62 77 89 98 94 64 45 41 50 58 60 74 95 69 63 64 36 44 38 38 83 91 90 99
98 91 75 57 98 97 76 54 44 38 42 44 52 52 48 64 79 65 81 56 58 66 92 80 85 90 68 66 59 62 51 54 58 60 73 77 64 35 42 48 42 46 91 90 88
99 100 77 65 68 78 74 64 51 39 41 39 47 44 51 59 59 73 61 53 55 55 67 85 89 79 86 71 60 66 60 57 60 92 72 57 46 33 45 50 68 60 57 77 83
100 98 88 97 99 99 79 87 78 70 50 47 57 57 62 84 66 59 50 56 49 50 63 82 96 75 65 57 57 60 59 56 63 62 75 61 57 44 42 43 61 68 68 76 80
97 98 100 100 97 98 99 94 81 77 72 78 70 70 79 83 72 74 66 67 75 62 79 89 94 82 91 65 58 61 56 53 56 55 55 57 57 40 38 36 43 56 55 71 83
98 99 99 99 98 99 95 86 86 76 90 68 65 84 96 75 63 63 61 64 63 78 97 99 98 96 87 62 70 73 60 59 56 49 50 64 50 43 48 52 55 53 49 51 55
Wind_Speed
15 12 8 6 6 6 6 6 7 7 8 8 9 10 10 9 9 7 6 8 8 9 8 7 9 7 7 6 6 9 5 10 15 18 16 22 22 27 30 18 17 26 28 24 27
16 14 13 10 7 7 7 7 6 6 7 6 7 9 9 9 10 7 9 11 8 7 3 4 5 5 6 7 4 6 6 9 13 18 19 24 27 27 24 29 24 28 34 20 19
16 16 14 12 9 8 8 8 7 7 7 7 8 9 9 9 6 2 2 2 5 3 4 4 5 7 9 14 15 12 18 15 22 30 34 28 27 29 25 21 22 20 34 24 9
16 16 16 14 12 10 10 9 8 7 7 7 8 9 10 7 2 4 3 6 9 6 4 4 7 11 9 9 13 18 26 27 30 32 33 25 34 29 31 28 30 31 38 28 33
19 17 15 15 14 12 11 10 9 8 7 7 8 9 10 5 7 13 10 7 7 8 7 8 11 13 13 10 15 17 18 27 33 33 36 35 31 29 34 34 32 37 37 31 32
19 18 16 16 15 13 12 11 10 9 8 8 8 8 6 7 8 10 10 7 9 9 9 9 7 11 14 14 15 18 27 27 30 32 32 28 32 34 31 31 35 43 41 36 33
17 17 15 17 16 14 12 11 11 10 9 9 8 5 10 17 6 8 8 10 9 11 13 13 12 12 5 8 21 19 20 21 24 25 24 32 26 31 36 30 36 42 41 43 37
16 17 20 20 17 14 12 11 11 11 11 11 8 2 9 8 14 14 10 11 12 13 14 13 12 16 14 11 10 15 18 18 19 16 30 24 27 31 37 37 39 42 40 38 49
20 24 24 20 17 13 11 11 11 11 12 11 6 5 9 10 12 14 10 13 11 11 12 10 11 7 4 8 10 10 13 17 25 17 19 19 28 31 41 41 35 38 46 36 47
26 21 21 18 17 13 12 10 11 11 8 6 7 6 14 7 9 7 10 10 8 6 6 8 5 3 3 6 11 9 12 16 22 20 19 25 27 26 38 31 32 44 43 36 36
22 20 21 19 16 14 11 7 5 3 13 12 10 7 4 5 9 9 7 7 8 7 6 12 7 12 14 17 21 20 21 27 28 23 23 23 23 24 24 29 29 39 41 28 31
18 20 20 20 19 14 8 2 7 9 11 21 25 20 18 8 5 9 10 8 9 9 12 6 15 19 16 17 21 21 23 31 30 22 20 16 21 25 27 28 28 23 24 28 30
20 21 20 20 19 8 5 8 9 6 6 3 10 12 11 14 8 11 13 6 4 7 11 12 12 10 13 15 18 21 23 28 27 22 18 19 26 28 25 20 26 30 28 27 33
21 21 20 18 7 8 4 9 7 1 4 4 3 3 5 5 5 10 12 6 5 7 11 10 17 15 8 13 12 21 22 30 29 15 11 6 9 15 20 22 17 23 24 28 30
20 20 19 18 11 5 10 9 3 3 4 4 4 5 4 6 2 7 9 6 8 9 6 9 13 14 6 15 6 14 13 19 19 17 13 19 8 5 15 22 22 21 26 31 37
21 21 20 14 11 9 8 2 3 2 6 2 4 4 3 7 5 5 6 10 9 9 12 22 14 12 12 12 8 7 6 13 14 10 6 11 6 3 11 20 19 20 32 35 31
20 22 18 13 5 9 3 3 2 3 2 0 3 5 5 4 5 7 5 6 4 5 2 13 11 9 10 11 4 2 6 4 3 2 4 2 4 8 10 6 16 23 27 31 30
22 22 18 10 6 2 4 2 3 2 4 5 2 7 6 4 5 5 5 5 11 10 4 5 6 3 5 6 9 12 9 4 6 6 8 6 3 3 9 7 19 20 22 29 23
21 17 11 11 3 6 0 2 3 4 4 7 10 5 2 3 1 3 7 4 2 6 4 5 5 16 20 9 1 4 4 6 5 8 5 5 5 6 2 7 19 7 14 21 32
20 12 7 8 2 6 1 4 3 3 4 3 3 5 3 2 2 2 4 3 3 4 3 3 9 10 9 6 9 8 6 3 2 5 5 5 5 9 17 12 12 5 9 23 29
16 7 4 4 3 1 2 4 4 2 2 2 4 4 3 4 2 3 6 3 4 4 4 5 5 8 11 5 6 3 4 3 3 2 2 4 2 7 13 9 9 6 6 15 24
8 3 4 3 2 1 2 3 3 3 3 3 2 4 4 4 4 4 5 2 5 1 4 3 4 6 14 23 12 4 6 7 3 3 4 3 4 5 6 6 8 2 11 10 23
3 6 5 6 2 3 6 4 6 4 5 4 4 6 3 3 5 6 4 2 2 1 3 4 2 7 10 5 6 4 10 14 9 5 6 3 3 2 8 10 10 10 7 20 21
3 2 4 6 5 1 4 6 4 7 4 5 4 3 2 4 6 5 7 2 1 6 2 1 4 8 10 13 17 17 18 16 11 5 5 8 9 3 8 9 10 13 9 8 15
5 4 4 3 4 3 2 5 4 4 5 3 3 7 4 4 4 6 8 8 8 10 4 3 5 9 13 17 19 19 19 18 15 15 9 8 13 12 5 5 5 10 10 7 7
7 2 3 3 2 1 4 5 4 6 2 5 5 4 3 6 7 13 14 6 8 2 4 3 5 6 12 16 19 22 19 20 20 20 18 17 22 11 6 5 7 10 11 7 4
8 8 5 5 4 4 5 6 5 3 8 15 10 4 9 14 11 14 14 18 16 8 5 4 2 2 11 9 10 9 8 10 12 14 15 16 14 10 4 10 12 17 17 13 10
Wind_Direction
8 4 354 342 330 326 321 327 331 327 321 319 314 307 307 306 308 332 296 232 241 278 304 331 5 344 340 296 287 283 260 265 271 278 294 293 293 291 289 285 299 283 285 286 210
8 360 353 335 319 313 308 302 306 317 319 313 306 305 308 311 320 312 262 260 272 291 336 5 340 314 300 271 248 209 247 255 271 281 288 291 292 300 290 279 269 282 263 296 208
357 357 350 340 319 304 295 289 300 313 313 307 311 319 330 331 347 160 313 290 255 295 308 314 302 301 273 267 244 237 250 270 271 281 286 291 291 289 278 268 262 270 275 296 276
355 350 349 340 325 304 293 283 287 299 308 313 318 321 327 337 200 256 265 282 282 281 301 296 271 261 259 262 263 261 260 264 273 276 281 282 289 282 281 272 266 266 271 282 280
355 349 345 342 331 311 294 285 280 283 290 304 319 327 336 312 278 274 286 281 274 250 231 251 273 277 264 272 285 264 267 271 276 277 275 275 270 268 269 280 284 269 271 271 274
354 350 344 341 332 317 296 283 273 270 272 283 317 327 331 276 253 255 271 257 225 233 240 252 259 283 303 277 271 277 283 279 277 275 280 267 263 265 258 264 270 268 265 265 268
353 350 346 342 334 321 301 286 274 269 266 273 301 316 277 254 245 253 234 254 234 238 250 257 263 254 293 285 265 288 278 271 261 263 261 267 272 257 258 253 255 262 261 266 259
351 355 348 341 336 326 311 296 281 268 263 267 287 259 256 247 230 250 242 244 241 247 254 258 260 266 262 261 273 274 268 269 270 251 255 248 256 253 252 246 245 253 255 248 265
333 329 328 327 331 327 316 303 285 273 264 266 290 246 266 239 240 233 238 237 246 253 251 253 249 248 251 254 270 219 265 257 280 260 258 243 257 257 244 238 243 246 250 235 243
332 337 336 333 333 331 323 313 298 283 279 247 232 268 241 240 204 219 224 226 231 245 234 226 217 244 230 212 250 261 252 270 268 282 283 274 256 251 249 249 245 246 249 232 239
335 339 346 337 334 333 328 355 340 258 219 212 206 208 138 207 250 262 200 210 214 223 233 191 219 236 249 236 246 266 272 272 269 271 262 264 272 271 273 244 240 254 235 217 233
335 335 341 345 334 327 320 353 294 294 291 256 247 246 252 271 265 210 201 200 200 227 228 241 247 251 246 246 249 258 268 270 273 268 266 285 268 274 269 242 231 234 208 210 215
329 330 330 334 334 343 340 286 298 302 269 285 217 241 239 219 234 220 189 207 245 252 239 238 249 291 290 249 253 251 252 263 263 289 280 282 276 263 255 236 227 231 218 217 216
327 327 327 334 337 320 293 309 322 335 285 175 205 185 191 195 255 219 201 200 216 260 231 244 248 257 251 254 248 271 248 256 267 277 269 173 295 242 222 230 212 215 209 217 222
338 337 336 332 316 338 287 317 342 52 323 143 143 187 161 211 350 201 198 199 244 244 269 250 280 285 246 242 184 256 279 275 262 268 279 272 253 269 182 216 210 213 210 217 221
337 333 334 331 336 294 315 345 17 250 255 133 143 186 205 206 228 141 196 228 271 275 248 253 256 274 251 269 187 271 291 266 259 271 245 275 218 165 179 217 217 220 216 208 203
341 337 332 322 254 283 301 359 242 222 124 262 219 175 194 232 218 183 192 206 244 278 321 313 263 225 211 263 154 181 286 287 292 256 303 285 247 274 210 195 222 220 213 210 202
338 335 334 333 312 239 114 235 236 204 9 19 245 252 223 153 214 221 265 242 229 212 293 291 321 156 165 238 291 283 255 339 313 329 298 342 262 351 338 338 294 268 191 199 191
337 334 334 349 355 145 110 224 273 15 350 337 300 230 274 100 246 222 220 240 137 180 231 309 255 330 312 290 237 330 326 285 281 270 284 279 308 341 75 343 323 247 192 180 168
335 340 292 343 113 134 237 264 306 18 333 323 288 36 331 14 321 344 275 91 173 218 203 311 296 259 293 296 244 217 324 325 245 324 314 325 11 331 336 339 328 111 161 154 160
333 316 285 348 145 231 240 262 316 76 340 299 312 304 306 282 181 276 275 218 153 195 219 269 237 302 316 246 290 207 266 244 303 273 302 327 348 330 322 326 329 108 100 134 152
319 281 289 287 257 216 247 227 322 262 215 261 259 248 233 291 245 245 255 268 108 359 269 82 299 281 272 270 288 312 298 297 273 336 278 211 288 345 329 356 13 337 153 176 154
244 250 288 197 211 217 247 256 221 231 221 196 250 208 341 269 299 290 264 62 30 13 324 338 279 313 311 47 11 339 342 352 310 277 260 276 265 113 6 25 17 22 144 164 175
261 317 248 210 259 256 314 275 254 212 257 243 266 286 245 255 227 265 284 306 260 264 224 119 251 246 270 286 305 298 298 299 302 284 299 279 304 3 36 35 18 20 36 167 173
217 228 228 219 251 237 56 321 287 288 231 201 269 227 227 256 289 259 295 337 303 286 214 233 258 263 269 285 290 289 286 287 272 271 276 292 301 318 37 69 77 61 35 52 185
287 256 269 269 268 224 199 226 248 273 213 254 235 283 287 241 218 289 291 288 259 218 169 233 269 288 279 279 272 276 279 266 260 260 263 272 278 291 330 86 51 51 61 43 350
282 274 278 217 189 204 204 219 233 266 248 258 274 298 270 266 280 288 278 269 258 243 218 223 249 279 282 279 327 296 270 274 263 259 250 250 267 283 11 49 32 32 37 46 37